{"data":{"norad_id":41727,"epoch":"2026-05-25T04:32:27.028608Z","epoch_age_seconds":58599,"freshness":"FRESH","line1":"1 41727U 16049A   26145.18920172  .00000181  00000+0  68047-4 0  9997","line2":"2 41727  98.4021 153.3230 0000954  90.6856 269.4443 14.42212232515338","mean_motion":14.42212232,"eccentricity":9.54e-5,"inclination_deg":98.4021,"raan_deg":153.323,"arg_perigee_deg":90.6856,"mean_anomaly_deg":269.4443,"bstar":6.8047e-5,"rev_number":51533,"period_min":99.846608428987,"perigee_km":750.5184518966,"apogee_km":751.87872912726,"semimajor_km":7129.3355905119,"source":"CELESTRAK","updated_at":"2026-05-25T13:38:12.822334Z"}}